Dewpoint
58 58 58 59 59 59 60 60 60 61 61 61 61 61 62 62 61 56 43 42 46 73 70 57 62 64 62 61 65 64 57 52 48 49 48 52 55 58 59 55 57 56 57 54 52
58 58 58 58 59 59 59 59 60 60 60 61 61 61 62 62 54 46 57 73 73 73 50 60 59 59 60 62 61 59 55 52 49 51 49 50 56 57 54 52 50 56 56 55 54
57 58 58 58 58 58 59 59 59 59 59 59 60 61 62 61 55 53 71 74 73 68 57 62 56 58 57 59 57 54 50 48 41 44 47 53 55 54 54 54 56 53 55 55 53
57 57 57 58 58 58 58 59 59 59 59 59 60 61 61 57 45 52 72 72 73 52 54 61 59 56 56 55 55 55 52 48 44 44 43 45 53 53 53 53 56 57 55 55 55
57 57 57 57 58 58 58 59 59 58 58 59 60 61 57 48 48 63 72 70 55 53 55 60 62 59 57 58 58 55 51 48 49 45 44 43 48 52 51 54 55 56 55 55 56
55 56 56 57 57 57 58 58 58 58 58 59 61 60 53 39 52 60 50 49 53 54 57 63 63 60 59 57 55 53 51 47 46 47 44 44 45 48 52 54 54 55 55 54 55
55 55 55 55 56 57 57 57 57 57 58 60 62 55 43 33 51 50 49 49 54 57 58 67 64 60 61 55 57 53 50 50 46 47 46 44 50 48 49 53 52 53 53 54 54
55 55 55 55 56 56 57 57 56 57 58 62 61 52 39 39 50 52 53 53 53 55 57 57 57 55 55 54 51 49 48 47 47 50 45 44 45 47 49 51 51 52 52 53 54
55 55 55 55 55 56 56 56 56 58 60 62 55 49 35 50 40 50 53 53 53 54 53 52 54 52 55 53 51 49 43 45 46 47 46 50 48 46 49 49 51 52 52 53 54
56 56 55 54 55 55 55 55 55 56 56 52 43 34 37 37 38 39 50 50 48 47 46 48 55 55 53 52 43 47 45 43 44 44 47 49 47 56 55 49 50 52 52 54 55
56 56 56 56 55 55 52 48 42 43 41 34 29 29 34 37 43 42 46 48 47 46 42 43 50 51 52 50 49 48 44 43 35 34 39 43 55 55 56 53 50 52 52 55 54
55 56 56 56 55 54 51 42 40 25 26 36 29 20 27 28 32 38 41 43 43 41 41 40 47 50 47 47 46 41 39 42 38 36 36 38 46 52 49 57 55 50 52 53 54
55 55 55 55 54 50 44 40 33 25 23 21 31 23 17 21 23 26 35 40 40 39 38 36 38 48 45 38 36 38 39 35 34 35 30 40 42 47 51 50 51 51 51 53 54
54 55 54 53 49 40 39 38 28 26 24 20 25 22 19 19 17 21 23 23 35 36 36 35 35 47 42 39 37 34 37 30 26 26 27 33 33 44 45 46 47 48 49 51 52
54 54 53 52 45 37 28 24 27 25 23 18 13 8 4 9 14 10 14 18 19 23 28 26 26 26 42 40 39 35 34 29 28 26 23 27 41 44 43 44 46 42 47 50 52
53 53 53 51 48 39 34 25 28 24 21 13 15 15 14 9 8 9 11 14 17 18 17 23 23 21 22 23 22 23 26 28 27 26 25 39 40 42 43 39 46 42 46 49 50
51 51 51 45 39 32 25 29 29 22 19 15 12 10 12 12 11 12 13 13 12 8 10 10 10 11 14 19 21 21 20 25 23 24 31 38 39 41 41 39 42 44 46 48 50
50 50 50 44 43 40 28 30 26 17 15 12 8 6 7 9 12 11 13 13 13 14 15 16 18 16 16 17 19 20 18 23 21 21 23 32 28 32 39 39 44 44 47 50 47
50 47 44 42 43 41 31 28 24 21 17 15 10 10 12 6 9 16 14 12 15 17 25 20 20 21 17 15 12 18 22 20 16 18 19 27 37 37 37 35 37 37 39 43 47
48 43 41 39 28 27 30 27 24 18 20 17 15 18 19 17 17 16 16 19 21 22 21 20 18 19 18 17 14 18 25 18 23 20 21 21 25 36 37 39 40 41 41 45 46
48 46 34 25 28 35 29 27 26 18 21 22 22 21 21 20 23 22 22 22 22 22 23 21 19 20 18 16 15 16 16 20 17 19 16 19 23 40 38 41 40 40 45 50 49
45 43 26 22 34 39 32 32 30 20 24 24 26 25 25 26 27 26 24 24 23 25 24 26 21 19 18 17 15 12 13 11 12 15 18 17 18 37 42 41 41 41 43 56 56
45 42 28 25 31 26 23 18 22 20 20 19 21 23 22 22 25 26 23 23 23 26 28 31 25 21 19 15 15 14 15 14 13 12 16 18 19 26 38 38 37 41 46 50 57
48 36 34 36 28 21 23 24 20 19 20 21 22 22 23 25 24 27 25 21 18 28 51 38 21 21 20 21 22 19 18 17 16 15 14 16 16 34 37 38 36 44 47 47 49
45 39 35 32 32 25 23 24 22 20 20 21 22 18 21 22 22 21 17 18 19 36 26 18 20 23 22 20 19 20 20 19 18 18 23 17 17 34 38 36 40 43 46 48 50
42 40 39 38 32 29 26 25 20 17 19 19 22 18 19 20 21 21 21 22 22 22 18 15 16 18 19 20 19 17 18 19 19 18 18 18 18 23 37 30 29 34 45 48 51
47 44 45 39 32 29 31 30 24 24 26 25 24 24 22 21 23 23 21 20 18 17 17 16 15 14 12 18 14 12 17 16 16 18 18 16 18 21 23 26 27 28 45 50 52
Lifted_Index
14 14 15 14 14 14 13 13 12 12 11 11 11 11 11 10 8 5 3 3 3 2 -0 -2 -3 -3 -3 -3 -3 -3 -2 -2 -1 -1 -1 -2 -3 -2 -2 -2 -1 -1 -1 -1 0
15 15 15 15 14 14 13 13 12 12 12 11 11 11 11 9 5 2 2 2 2 1 -1 -3 -3 -2 -2 -2 -2 -2 -2 -2 -1 -1 -2 -2 -3 -2 -1 -1 -1 -1 -1 -0 0
15 15 15 15 15 14 14 13 13 12 12 12 11 11 10 8 3 1 0 1 1 -1 -3 -4 -3 -2 -1 -1 -2 -2 -2 -2 -1 -1 -2 -2 -2 -2 -1 -1 -1 -1 -1 -0 -0
15 15 15 15 15 14 14 14 13 13 12 11 11 11 9 6 3 1 0 0 -0 -2 -4 -4 -2 -1 -1 -1 -1 -2 -3 -2 -1 -1 -1 -2 -2 -2 -1 -1 -1 -1 -1 -0 -0
15 15 15 15 15 14 14 14 13 13 12 11 10 9 7 4 2 2 1 0 -1 -3 -4 -3 -2 -1 -0 0 -1 -2 -2 -2 -1 -0 -0 -1 -1 -1 -1 -1 -1 -1 -1 -1 -1
16 15 15 15 15 14 14 14 13 12 12 11 10 8 5 3 2 2 2 0 -1 -3 -4 -3 -2 -2 -0 0 -0 -1 -1 -1 -1 -1 -0 -0 -1 -1 -1 -1 -1 -1 -1 -1 -0
16 16 15 15 15 14 14 13 13 12 11 10 9 7 4 2 1 1 1 1 -1 -3 -3 -3 -2 -2 -1 -0 -0 -0 -1 -1 -1 -1 -1 -0 -0 -0 -1 -1 -1 -1 -0 -0 0
15 15 15 15 15 14 14 13 13 12 11 10 8 6 3 2 1 0 0 -0 -1 -3 -3 -3 -2 -2 -1 -1 -0 -0 -1 -1 -1 -1 -1 -1 -0 -0 -1 -1 -1 -1 -0 0 0
14 14 15 15 15 14 14 14 13 12 10 9 8 6 3 2 1 0 -1 -1 -1 -2 -3 -3 -2 -2 -2 -1 -1 -1 -1 -1 -1 -1 -1 -1 -1 -1 -1 -1 -1 -1 -0 -0 -0
14 14 14 15 15 14 14 13 12 11 9 8 7 4 2 1 1 1 -1 -1 -1 -2 -2 -2 -2 -2 -2 -1 -1 -1 -1 -1 -1 -1 -1 -2 -2 -2 -1 -1 -1 -1 -1 -1 -1
14 14 14 14 14 14 13 11 10 9 8 7 5 3 2 2 2 1 -0 -1 -1 -1 -1 -2 -2 -1 -1 -1 -1 -1 -1 -1 -1 -0 -1 -2 -2 -2 -2 -2 -1 -1 -1 -1 -1
14 14 14 14 13 13 11 9 9 8 7 5 4 3 3 3 2 1 0 -0 -1 -1 -1 -1 -1 -1 -1 -0 -0 -1 -1 -1 -1 -1 -1 -1 -2 -2 -2 -1 -1 -1 -1 -1 -1
14 14 13 12 11 10 10 9 9 8 5 4 4 3 3 3 3 2 2 1 0 0 -0 -0 -1 -1 -1 -0 -0 -0 -0 -1 -1 -1 -0 -1 -1 -1 -1 -1 -1 -1 -1 -1 -1
13 13 13 11 10 9 9 9 8 7 4 3 3 3 3 3 3 3 2 2 2 1 1 1 0 -0 -0 0 0 0 0 -0 -0 0 0 -0 -0 -0 -0 -0 -1 -1 -1 -1 -1
12 12 12 10 9 8 9 9 7 5 2 2 2 2 2 2 2 2 2 3 3 2 2 2 2 1 0 1 1 1 1 1 1 1 0 -0 -0 -0 0 0 -0 -1 -1 -1 -1
11 11 11 10 8 8 8 7 5 2 1 1 1 1 1 1 1 1 2 2 2 2 2 2 2 2 1 1 1 1 1 1 1 1 -0 -0 -0 -0 0 1 0 -0 -1 -1 -1
10 10 10 9 8 8 8 6 3 1 0 1 1 1 1 0 0 0 0 1 1 1 1 1 1 1 1 1 1 0 0 0 0 -0 -0 -1 -1 -0 0 1 1 -0 -1 -1 -1
9 9 8 8 8 8 7 5 3 2 1 1 1 1 1 0 -0 -0 -0 -0 0 0 -0 -0 0 0 0 0 0 -0 -0 -0 -0 -0 -0 -1 -1 -0 0 0 0 -0 -1 -2 -2
8 8 7 7 8 8 6 5 4 4 3 3 2 2 1 0 -0 -0 -0 -0 -0 0 0 0 1 1 1 1 0 -0 -1 -1 -1 -1 -0 -0 -0 0 0 0 -0 -0 -1 -2 -2
7 7 6 7 8 7 6 5 5 5 5 4 3 3 2 1 1 1 1 1 1 1 2 2 2 2 1 1 0 -0 -0 -1 -1 -1 -1 -0 -0 0 0 0 0 0 -1 -2 -2
6 6 7 8 7 7 6 6 6 6 6 5 5 4 4 3 3 3 2 3 3 3 4 4 4 3 2 2 1 0 0 -0 -1 -1 -1 -1 -0 0 0 0 1 0 -1 -1 -2
6 6 7 8 7 6 6 6 6 7 7 6 6 6 6 5 4 4 4 4 5 5 6 6 5 3 3 2 2 1 1 0 -0 -0 -1 -1 -0 -0 0 0 1 0 -0 -1 -1
7 7 8 8 7 6 6 6 6 7 7 7 7 7 7 6 6 5 5 5 6 6 7 7 5 4 3 3 2 2 1 1 1 0 -0 -0 -0 -0 0 0 0 -0 -1 -1 -1
7 7 7 7 7 7 7 7 7 7 8 8 8 8 8 7 7 7 7 7 7 7 7 7 6 5 4 4 4 2 2 2 1 1 0 0 0 0 0 -0 -0 -1 -1 -1 -1
7 7 7 7 7 7 7 8 8 8 8 8 8 9 8 8 7 7 7 7 7 7 7 7 6 6 6 6 5 4 3 3 2 2 1 1 1 1 0 -0 -1 -1 -1 -1 -1
8 8 8 7 7 7 8 8 8 8 9 9 9 9 9 9 8 8 8 8 8 7 7 7 6 6 6 6 6 5 5 4 4 3 3 2 2 1 0 -0 -0 -0 -1 -2 -2
9 9 8 7 7 7 8 8 8 9 9 9 9 9 9 10 10 10 10 9 9 8 7 7 6 6 5 6 6 5 5 5 4 4 3 3 2 2 1 -0 0 -0 -1 -2 -2